FW2795 Weather Reports


Display with metric or nautical units.
time (UTC)temp
F
wind
direction
speed
MPH
gust
MPH
rain 1hr
in
rain 24hr
in
rain mn
in
humidity
%
barometer
mb
20260901125503 73 226 2.0 3.0 0.00 0.00 0.00 44 1021.0
20260901125002 73 228 4.0 5.0 0.00 0.00 0.00 44 1021.1
20260901124502 73 282 3.0 5.0 0.00 0.00 0.00 43 1021.1
20260901124001 73 246 4.0 5.0 0.00 0.00 0.00 43 1021.1
20260901123516 73 203 2.0 4.0 0.00 0.00 0.00 45 1021.2
20260901123000 74 221 3.0 4.0 0.00 0.00 0.00 43 1021.2
20260901122500 75 211 5.0 7.0 0.00 0.00 0.00 42 1021.1
20260901122000 75 243 4.0 4.0 0.00 0.00 0.00 42 1021.3
20260901121514 73 248 4.0 5.0 0.00 0.00 0.00 45 1021.1
20260901120958 72 226 3.0 4.0 0.00 0.00 0.00 51 1021.4
20260901120458 71 190 3.0 4.0 0.00 0.00 0.00 51 1021.3
20260901120012 72 168 2.0 3.0 0.00 0.00 0.00 50 1021.4
20260901115512 73 165 4.0 4.0 0.00 0.00 0.00 46 1021.2
20260901115012 72 194 3.0 6.0 0.00 0.00 0.00 51 1021.2
20260901114502 72 222 2.0 3.0 0.00 0.00 0.00 44 1021.3
20260901113959 74 210 2.0 2.0 0.00 0.00 0.00 43 1021.2
20260901113514 75 208 3.0 4.0 0.00 0.00 0.00 44 1021.2
20260901113014 74 244 4.0 5.0 0.00 0.00 0.00 45 1021.1
20260901112504 73 280 2.0 4.0 0.00 0.00 0.00 46 1021.2
20260901112003 72 264 3.0 4.0 0.00 0.00 0.00 51 1021.3
20260901111503 72 284 2.0 3.0 0.00 0.00 0.00 52 1021.2
20260901111003 72 267 2.0 3.0 0.00 0.00 0.00 50 1021.2
20260901110502 72 274 6.0 8.0 0.00 0.00 0.00 45 1021.3
20260901110002 72 236 2.0 3.0 0.00 0.00 0.00 50 1021.4
20260901105516 71 223 4.0 4.0 0.00 0.00 0.00 52 1021.4
20260901105001 72 203 3.0 4.0 0.00 0.00 0.00 49 1021.2
20260901104500 72 214 3.0 4.0 0.00 0.00 0.00 51 1021.4
20260901104000 71 223 3.0 5.0 0.00 0.00 0.00 53 1021.4
20260901103515 72 215 3.0 4.0 0.00 0.00 0.00 54 1021.5
20260901103029 72 206 2.0 3.0 0.00 0.00 0.00 53 1021.5
20260901102509 71 211 2.0 4.0 0.00 0.00 0.00 52 1021.5
20260901102008 71 204 3.0 4.0 0.00 0.00 0.00 53 1021.4
20260901101508 70 200 3.0 4.0 0.00 0.00 0.00 54 1021.7
20260901101007 70 189 6.0 8.0 0.00 0.00 0.00 54 1021.5
20260901100505 70 198 4.0 5.0 0.00 0.00 0.00 54 1021.7
20260901100004 70 216 2.0 4.0 0.00 0.00 0.00 53 1021.6
20260901095504 72 227 4.0 7.0 0.00 0.00 0.00 51 1021.7
20260901095004 72 248 2.0 3.0 0.00 0.00 0.00 52 1021.7
20260901094503 72 248 4.0 5.0 0.00 0.00 0.00 53 1021.8
20260901094017 71 242 2.0 4.0 0.00 0.00 0.00 54 1021.8
20260901093506 69 250 3.0 4.0 0.00 0.00 0.00 56 1021.7
20260901093006 69 250 3.0 4.0 0.00 0.00 0.00 55 1021.6
20260901092506 69 270 3.0 4.0 0.00 0.00 0.00 55 1021.7
20260901092005 69 303 4.0 4.0 0.00 0.00 0.00 55 1021.9
20260901091505 69 276 3.0 4.0 0.00 0.00 0.00 55 1021.7
20260901091005 69 234 1.0 2.0 0.00 0.00 0.00 57 1021.6
20260901090505 69 236 2.0 2.0 0.00 0.00 0.00 57 1021.8
20260901090004 69 241 4.0 5.0 0.00 0.00 0.00 57 1021.7
20260901085504 68 254 3.0 6.0 0.00 0.00 0.00 59 1021.9
20260901085018 68 271 2.0 4.0 0.00 0.00 0.00 59 1021.8
20260901084508 69 286 2.0 2.0 0.00 0.00 0.00 57 1021.7
20260901084008 69 290 2.0 3.0 0.00 0.00 0.00 59 1021.6
20260901083523 69 278 2.0 2.0 0.00 0.00 0.00 59 1021.6
20260901083012 69 279 2.0 4.0 0.00 0.00 0.00 60 1021.6
20260901082512 67 275 2.0 3.0 0.00 0.00 0.00 62 1021.6
20260901082011 67 279 2.0 4.0 0.00 0.00 0.00 62 1021.5
20260901081511 67 254 1.0 2.0 0.00 0.00 0.00 62 1021.5
20260901081007 67 250 1.0 2.0 0.00 0.00 0.00 63 1021.8
20260901080506 67 248 2.0 2.0 0.00 0.00 0.00 62 1021.5
20260901080006 67 237 3.0 4.0 0.00 0.00 0.00 62 1021.6
20260901075521 66 270 1.0 2.0 0.00 0.00 0.00 65 1021.4
20260901075010 64 270 1.0 2.0 0.00 0.00 0.00 69 1021.3
20260901074510 63 270 0.0 1.0 0.00 0.00 0.00 71 1021.2
20260901073959 64 270 1.0 2.0 0.00 0.00 0.00 70 1021.3
20260901073514 63 270 0.0 1.0 0.00 0.00 0.00 77 1021.4
20260901072959 60 270 1.0 2.0 0.00 0.00 0.00 81 1021.4
20260901072458 58 270 0.0 1.0 0.00 0.00 0.00 80 1021.3
20260901071958 58 270 0.0 1.0 0.00 0.00 0.00 82 1021.5
20260901071513 57 270 0.0 1.0 0.00 0.00 0.00 82 1021.3
20260901071012 57 270 1.0 2.0 0.00 0.00 0.00 85 1021.2
20260901070511 57 180 0.0 0.0 0.00 0.00 0.00 87 1021.2
20260901070011 56 180 0.0 0.0 0.00 0.00 0.00 89 1021.2
20260901065511 56 180 0.0 0.0 0.00 0.00 0.00 91 1021.2
20260901065010 55 180 0.0 0.0 0.00 0.00 0.00 92 1021.2
20260901064510 54 180 0.0 0.0 0.00 0.00 0.00 93 1021.3
20260901064010 54 180 0.0 0.0 0.00 0.00 0.00 96 1021.2
20260901063509 54 180 0.0 0.0 0.00 0.00 0.00 97 1021.3
20260901063008 53 180 0.0 0.0 0.00 0.00 0.00 97 1021.3
20260901062458 53 180 0.0 0.0 0.00 0.00 0.00 97 1021.2
20260901062013 53 180 0.0 0.0 0.00 0.00 0.00 97 1021.4
20260901061515 52 180 0.0 0.0 0.00 0.00 0.00 96 1021.5
20260901061014 52 180 0.0 0.0 0.00 0.00 0.00 96 1021.2
20260901060504 52 180 0.0 0.0 0.00 0.00 0.00 96 1021.2
20260901060003 51 180 0.0 0.0 0.00 0.00 0.00 95 1021.2
20260901055517 51 180 0.0 0.0 0.00 0.00 0.00 95 1021.2
20260901055002 51 180 0.0 0.0 0.00 0.00 0.00 95 1020.9
20260901054501 51 180 0.0 0.0 0.00 0.00 0.00 94 1021.1
20260901054001 51 180 0.0 0.0 0.00 0.00 0.00 94 1021.0
20260901053515 51 180 0.0 0.0 0.00 0.00 0.00 94 1021.1
20260901053005 51 180 0.0 0.0 0.00 0.00 0.00 94 1021.3
20260901052519 51 180 0.0 0.0 0.00 0.00 0.00 94 1021.2
20260901052009 51 180 0.0 0.0 0.00 0.00 0.00 94 1020.9
20260901051506 51 180 0.0 0.0 0.00 0.00 0.00 94 1021.0
20260901051006 51 180 0.0 0.0 0.00 0.00 0.00 94 1021.0
20260901050505 51 180 0.0 0.0 0.00 0.00 0.00 94 1021.1
20260901050005 51 180 0.0 0.0 0.00 0.00 0.00 94 1021.1
20260901045520 51 180 0.0 0.0 0.00 0.00 0.00 94 1021.0
20260901045010 51 180 0.0 0.0 0.00 0.00 0.00 94 1020.9
20260901044459 51 180 0.0 0.0 0.00 0.00 0.00 94 1021.0
20260901043959 51 180 0.0 0.0 0.00 0.00 0.00 94 1020.7
20260901043513 51 180 0.0 0.0 0.00 0.00 0.00 94 1021.0
20260901043013 52 180 0.0 0.0 0.00 0.00 0.00 94 1020.9
20260901042502 52 180 0.0 0.0 0.00 0.00 0.00 93 1020.9
20260901042001 52 180 0.0 0.0 0.00 0.00 0.00 93 1020.7
20260901041516 52 180 0.0 0.0 0.00 0.00 0.00 93 1020.6
20260901041001 52 180 0.0 0.0 0.00 0.00 0.00 93 1020.7
20260901040500 52 180 0.0 0.0 0.00 0.00 0.00 93 1020.7
20260901040000 52 180 0.0 0.0 0.00 0.00 0.00 93 1020.6
20260901035515 52 180 0.0 0.0 0.00 0.00 0.00 92 1020.7
20260901034959 52 180 0.0 0.0 0.00 0.00 0.00 92 1020.7
20260901034459 52 180 0.0 0.0 0.00 0.00 0.00 92 1020.7
20260901033959 52 180 0.0 0.0 0.00 0.00 0.00 92 1020.8
20260901033513 52 180 0.0 0.0 0.00 0.00 0.00 92 1020.6
20260901033013 52 180 0.0 0.0 0.00 0.00 0.00 92 1020.7
20260901032507 52 180 0.0 0.0 0.00 0.00 0.00 91 1020.6
20260901032006 52 180 0.0 0.0 0.00 0.00 0.00 91 1020.4
20260901031518 52 180 0.0 0.0 0.00 0.00 0.00 91 1020.5
20260901031003 52 180 0.0 0.0 0.00 0.00 0.00 91 1020.5
20260901030517 53 180 0.0 0.0 0.00 0.00 0.00 90 1020.6
20260901030007 53 180 0.0 0.0 0.00 0.00 0.00 90 1020.7
20260901025507 53 180 0.0 0.0 0.00 0.00 0.00 90 1020.4
20260901025006 53 180 0.0 0.0 0.00 0.00 0.00 90 1020.6
20260901024505 53 180 0.0 0.0 0.00 0.00 0.00 90 1020.6
20260901024020 53 180 0.0 0.0 0.00 0.00 0.00 90 1020.6
20260901023509 53 315 0.0 0.0 0.00 0.00 0.00 90 1020.5
20260901023009 53 315 0.0 0.0 0.00 0.00 0.00 90 1020.5
20260901022514 53 315 0.0 0.0 0.00 0.01 0.00 89 1020.7
20260901022004 54 315 0.0 0.0 0.00 0.01 0.00 89 1020.6
20260901021518 54 315 0.0 1.0 0.00 0.01 0.00 89 1020.6
20260901021003 54 315 1.0 2.0 0.00 0.01 0.00 88 1020.6
20260901020502 54 315 1.0 2.0 0.00 0.01 0.00 87 1020.7
20260901020002 54 315 0.0 0.0 0.00 0.01 0.00 86 1020.7
20260901015517 54 315 0.0 1.0 0.00 0.01 0.00 86 1020.8
20260901015001 54 315 0.0 1.0 0.00 0.01 0.00 85 1020.8
20260901014501 54 315 0.0 0.0 0.00 0.01 0.00 85 1020.7
20260901014000 54 315 0.0 0.0 0.00 0.01 0.00 82 1020.6
20260901013514 54 315 2.0 2.0 0.00 0.01 0.00 82 1020.5
20260901013004 55 315 0.0 1.0 0.00 0.01 0.00 82 1020.6
20260901012504 55 315 1.0 2.0 0.00 0.01 0.00 82 1020.8
20260901012004 55 315 1.0 2.0 0.00 0.01 0.00 82 1020.6
20260901011518 55 315 0.0 1.0 0.00 0.01 0.00 81 1020.6
20260901011003 55 315 1.0 2.0 0.00 0.01 0.00 81 1020.7
20260901010503 55 315 0.0 0.0 0.00 0.01 0.00 81 1020.5
20260901010017 55 315 0.0 1.0 0.00 0.01 0.00 81 1020.6
20260901005512 56 308 1.0 2.0 0.00 0.01 0.00 81 1020.5
20260901005011 56 302 1.0 2.0 0.00 0.01 0.00 80 1020.5
20260901004511 56 270 0.0 1.0 0.00 0.01 0.00 80 1020.7
20260901004010 56 270 0.0 1.0 0.00 0.01 0.00 79 1020.7
20260901003525 56 248 0.0 0.0 0.00 0.01 0.00 79 1020.6
20260901003000 56 238 1.0 2.0 0.00 0.01 0.00 79 1020.4
20260901002459 56 224 0.0 1.0 0.00 0.01 0.00 78 1020.6
20260901001958 57 224 0.0 1.0 0.00 0.01 0.00 77 1020.6
20260901001513 57 233 0.0 1.0 0.00 0.01 0.00 77 1020.6
20260901000958 57 232 1.0 2.0 0.00 0.04 0.00 76 1020.6
20260901000458 57 246 2.0 2.0 0.00 0.08 0.00 76 1020.7
20260831235957 57 267 1.0 2.0 0.00 0.08 0.00 76 1020.4
20260831235512 58 242 0.0 2.0 0.00 0.09 0.00 76 1020.5
20260831234956 58 251 1.0 2.0 0.00 0.09 0.00 76 1020.6
20260831234456 58 239 1.0 2.0 0.00 0.09 0.00 75 1020.4
20260831233956 58 244 2.0 3.0 0.00 0.09 0.00 76 1020.5
20260831233510 58 256 1.0 1.0 0.00 0.11 0.00 75 1020.5
20260831232955 58 266 1.0 2.0 0.00 0.11 0.00 75 1020.5
20260831232510 58 278 2.0 2.0 0.00 0.11 0.00 74 1020.3
20260831231959 58 259 1.0 2.0 0.00 0.12 0.00 74 1020.5
20260831231514 58 250 1.0 2.0 0.00 0.12 0.00 73 1020.3
20260831230958 59 243 1.0 2.0 0.00 0.12 0.00 73 1020.3
20260831230513 59 315 0.0 1.0 0.00 0.12 0.00 72 1020.3
20260831230003 59 315 0.0 1.0 0.00 0.12 0.00 72 1020.2
20260831225517 59 315 0.0 1.0 0.00 0.12 0.00 71 1020.3
20260831225007 59 315 0.0 0.0 0.00 0.12 0.00 71 1020.3
20260831224507 60 308 1.0 2.0 0.00 0.12 0.00 71 1020.2
20260831224007 60 306 1.0 2.0 0.00 0.12 0.00 70 1020.2
20260831223506 60 307 0.0 1.0 0.00 0.12 0.00 70 1020.2
20260831223006 60 309 1.0 2.0 0.00 0.12 0.00 70 1020.1
20260831222505 60 299 1.0 2.0 0.00 0.12 0.00 70 1020.3
20260831222005 60 304 1.0 2.0 0.00 0.12 0.00 70 1020.3
20260831221520 60 309 1.0 2.0 0.00 0.12 0.00 70 1020.1
20260831221004 61 302 1.0 2.0 0.00 0.12 0.00 69 1020.1
20260831220504 61 291 2.0 3.0 0.00 0.12 0.00 69 1020.2
20260831220003 61 286 2.0 2.0 0.00 0.12 0.00 69 1019.9
20260831215518 61 304 2.0 3.0 0.00 0.12 0.00 68 1020.0
20260831215003 61 280 2.0 4.0 0.00 0.12 0.00 68 1019.8
20260831214501 62 310 1.0 2.0 0.00 0.12 0.00 67 1019.9
20260831214001 62 312 2.0 3.0 0.00 0.12 0.00 67 1019.9
20260831213516 62 314 4.0 4.0 0.00 0.12 0.00 67 1019.9
20260831213000 62 314 2.0 4.0 0.00 0.12 0.00 67 1019.8
20260831212514 63 314 2.0 5.0 0.00 0.12 0.00 68 1019.8
20260831212014 63 313 4.0 5.0 0.00 0.12 0.00 68 1019.6
20260831211514 63 312 2.0 4.0 0.00 0.12 0.00 68 1019.8
20260831211013 63 331 2.0 4.0 0.00 0.12 0.00 68 1019.5
20260831210512 63 315 2.0 4.0 0.00 0.12 0.00 68 1019.6
20260831210011 63 315 1.0 2.0 0.00 0.12 0.00 68 1019.6
20260831205515 63 315 3.0 4.0 0.00 0.12 0.00 69 1019.6
20260831205015 63 305 2.0 3.0 0.00 0.12 0.00 68 1019.4
20260831204514 63 303 2.0 2.0 0.00 0.12 0.00 68 1019.4
20260831204003 63 307 1.0 2.0 0.00 0.12 0.00 68 1019.4
20260831203518 64 308 4.0 5.0 0.00 0.12 0.00 64 1019.2
20260831203012 64 300 2.0 4.0 0.00 0.13 0.00 64 1019.4
20260831202502 64 295 2.0 4.0 0.00 0.24 0.00 64 1019.2
20260831202002 64 313 4.0 5.0 0.00 0.26 0.00 64 1019.2
20260831201516 64 302 2.0 2.0 0.00 0.27 0.00 64 1019.3
20260831201001 64 298 1.0 3.0 0.00 0.34 0.00 63 1019.0
20260831200500 64 291 2.0 2.0 0.00 0.40 0.00 63 1019.1
20260831200000 64 295 2.0 2.0 0.00 0.44 0.00 63 1018.9
20260831195515 64 282 1.0 2.0 0.00 0.46 0.00 63 1018.9
20260831195014 64 273 2.0 2.0 0.00 0.47 0.00 63 1018.8
20260831194504 64 290 2.0 4.0 0.00 0.47 0.00 62 1018.9
20260831194019 64 274 2.0 2.0 0.00 0.47 0.00 62 1018.7
20260831193523 65 247 2.0 2.0 0.00 0.47 0.00 62 1018.7
20260831193006 65 253 1.0 2.0 0.00 0.47 0.00 62 1018.7
20260831192505 65 272 1.0 2.0 0.00 0.47 0.00 62 1018.4
20260831192005 65 282 2.0 3.0 0.00 0.47 0.00 62 1018.2
20260831191520 65 294 1.0 2.0 0.00 0.47 0.00 61 1018.2
20260831191005 65 284 1.0 2.0 0.00 0.47 0.00 61 1018.1
20260831190505 66 297 2.0 3.0 0.00 0.47 0.00 61 1018.1
20260831190004 66 305 2.0 4.0 0.00 0.47 0.00 60 1017.8
20260831185519 66 294 1.0 2.0 0.00 0.47 0.00 60 1017.9
20260831185004 66 287 2.0 2.0 0.00 0.47 0.00 60 1017.9
20260831184503 66 298 3.0 4.0 0.00 0.47 0.00 60 1017.6
20260831184003 67 289 4.0 8.0 0.00 0.47 0.00 60 1017.6
20260831183518 67 272 4.0 8.0 0.00 0.47 0.00 60 1017.8
20260831183002 67 273 2.0 4.0 0.00 0.47 0.00 60 1017.5
20260831182502 67 258 4.0 7.0 0.00 0.47 0.00 60 1017.6
20260831182016 68 283 2.0 3.0 0.00 0.47 0.00 60 1017.6
20260831181521 68 277 2.0 4.0 0.00 0.47 0.00 60 1017.4
20260831181020 68 275 4.0 8.0 0.00 0.47 0.00 60 1017.5
20260831180509 68 282 4.0 6.0 0.00 0.47 0.00 60 1017.4
20260831180009 69 294 3.0 4.0 0.00 0.47 0.00 60 1017.4
20260831175523 69 307 5.0 8.0 0.00 0.47 0.00 59 1017.1
20260831175013 69 292 4.0 6.0 0.00 0.47 0.00 58 1017.2
20260831174513 69 346 4.0 6.0 0.00 0.47 0.00 58 1017.1
20260831174012 69 317 4.0 5.0 0.00 0.47 0.00 57 1017.0
20260831173512 70 308 3.0 4.0 0.00 0.47 0.00 56 1017.0
20260831173012 71 271 4.0 6.0 0.00 0.47 0.00 55 1017.0
20260831172511 71 198 3.0 4.0 0.00 0.47 0.00 55 1017.0
20260831172026 70 247 3.0 4.0 0.00 0.47 0.00 56 1016.9
20260831171520 71 218 4.0 9.0 0.00 0.47 0.00 58 1016.8
20260831171005 70 210 4.0 5.0 0.00 0.47 0.00 59 1016.9
20260831170505 70 243 4.0 6.0 0.00 0.47 0.00 58 1016.6
20260831170004 71 248 4.0 8.0 0.00 0.47 0.00 57 1016.5
20260831165518 71 259 4.0 6.0 0.00 0.47 0.00 56 1016.5
20260831165015 72 260 5.0 8.0 0.00 0.47 0.00 55 1016.5
20260831164505 72 283 5.0 8.0 0.00 0.47 0.00 54 1016.5
20260831164005 72 305 4.0 6.0 0.00 0.47 0.00 53 1016.5
20260831163520 73 311 8.0 12.0 0.00 0.47 0.00 50 1016.4
20260831163004 73 307 3.0 7.0 0.00 0.47 0.00 50 1016.3
20260831162504 73 293 4.0 7.0 0.00 0.47 0.00 50 1016.4
20260831162003 73 277 4.0 5.0 0.00 0.47 0.00 50 1016.2
20260831161518 73 289 5.0 8.0 0.00 0.47 0.00 50 1016.1
20260831161002 72 317 5.0 8.0 0.00 0.47 0.00 50 1016.2
20260831160517 72 329 5.0 8.0 0.00 0.47 0.00 51 1016.0
20260831160007 73 354 6.0 9.0 0.00 0.47 0.00 52 1016.0
20260831155521 73 283 5.0 10.0 0.00 0.47 0.00 51 1016.0
20260831155020 74 310 4.0 5.0 0.00 0.47 0.00 49 1015.7
20260831154510 75 278 6.0 9.0 0.00 0.47 0.00 46 1015.7
20260831154010 75 283 4.0 7.0 0.00 0.47 0.00 44 1015.6
20260831153509 75 279 2.0 3.0 0.00 0.47 0.00 48 1015.6
20260831153023 75 273 4.0 5.0 0.00 0.47 0.00 49 1015.4
20260831152513 75 317 4.0 6.0 0.00 0.47 0.00 48 1015.4
20260831152012 76 285 4.0 8.0 0.00 0.47 0.00 48 1015.4
20260831151912 75 260 4.0 6.0 0.00 0.47 0.00 47 1015.4
20260831151011 76 297 4.0 8.0 0.00 0.47 0.00 47 1015.3
20260831150456 76 270 5.0 9.0 0.00 0.47 0.00 47 1015.3
20260831145840 75 282 7.0 9.0 0.00 0.47 0.00 48 1015.2
20260831145000 75 300 5.0 10.0 0.00 0.47 0.00 48 1015.2
20260831144459 76 317 4.0 8.0 0.00 0.47 0.00 45 1015.1
20260831144014 76 304 7.0 8.0 0.00 0.47 0.00 43 1015.2
20260831143519 75 321 4.0 7.0 0.00 0.47 0.00 44 1015.3
20260831143003 77 318 5.0 9.0 0.00 0.47 0.00 43 1015.2
20260831142518 76 324 4.0 8.0 0.00 0.47 0.00 45 1015.2
20260831142007 77 327 5.0 7.0 0.00 0.47 0.00 44 1015.0
20260831141522 78 327 6.0 9.0 0.00 0.47 0.00 43 1014.8
20260831141006 78 296 6.0 9.0 0.00 0.47 0.00 43 1014.8
20260831140506 78 278 5.0 9.0 0.00 0.47 0.00 43 1014.9
20260831140006 76 251 4.0 8.0 0.00 0.47 0.00 43 1014.7
20260831135520 76 234 4.0 8.0 0.00 0.47 0.00 47 1014.6
20260831135010 76 220 4.0 8.0 0.00 0.47 0.00 45 1014.6
20260831134459 77 210 6.0 8.0 0.00 0.47 0.00 44 1014.5
20260831134014 77 223 4.0 5.0 0.00 0.47 0.00 46 1014.4
20260831133513 77 199 8.0 12.0 0.00 0.47 0.00 48 1014.4
20260831133013 76 231 6.0 11.0 0.00 0.47 0.00 47 1014.3
20260831132513 75 241 3.0 4.0 0.00 0.47 0.00 46 1014.2
20260831132013 77 210 6.0 8.0 0.00 0.47 0.00 45 1014.2
20260831131527 76 289 4.0 9.0 0.00 0.47 0.00 49 1014.1
20260831131001 74 290 4.0 6.0 0.00 0.47 0.00 50 1014.3
20260831130501 74 308 4.0 6.0 0.00 0.47 0.00 50 1014.1
20260831130000 74 312 4.0 7.0 0.00 0.47 0.00 49 1014.1